User: anonymous   Login
Location: Unspecified
(0.0000°N, 0.0000°E)
Time: 05:19:22
(UTC+01:00)
Language:

GPS 2-05 Rocket1 - Orbit

View from above orbital plane
View from above orbital plane
View from above satellite
View from above satellite

Ground track
Ground track

The orbit data is extracted from the following two-line orbital elements,

1 20362U 89097B   15061.87605854  .00026097  00000-0  73927-3 0  9997
2 20362 035.6126 220.9602 0092919 245.5439 270.2437 15.31057488370424
Epoch (UTC): 02 March 2015 21:01:31
Eccentricity: 0.0092919
inclination: 35.6126°
perigee height: 409 km
apogee height: 536 km
right ascension of ascending node: 220.9602°
argument of perigee: 245.5439°
revolutions per day: 15.31057488
mean anomaly at epoch: 270.2437°
orbit number at epoch: 37042

The dashed part of the orbit path shows where the satellite is in the earth's shadow,  

DLR